Wind_Speed
11 10 9 8 7 7 7 8 11 14 17 20 22 25 27 29 30 30 30 31 31 31 31 31 32 32 32 32 31 31 30 30 31 31 31 31 30 29 28 29 30 29 29
12 11 10 8 6 5 5 5 6 7 11 14 17 20 23 26 28 29 30 30 31 31 31 31 31 31 32 32 32 31 30 30 31 32 32 31 29 29 29 29 28 28 29
13 12 12 11 8 5 3 3 4 5 7 8 12 16 18 21 24 26 27 28 29 29 29 29 30 31 31 31 31 30 30 31 31 31 30 30 30 29 28 27 27 28 27
15 13 13 13 11 8 5 3 2 3 5 6 8 11 14 17 20 22 23 24 25 26 27 27 28 28 28 28 29 29 30 30 30 29 28 28 28 26 25 25 25 24 24
16 15 14 13 12 11 9 7 4 2 4 5 7 7 9 12 15 17 18 19 21 22 23 24 25 26 27 27 27 26 26 26 26 26 25 25 23 22 22 22 21 20 21
18 17 15 14 13 12 10 8 7 4 1 2 3 5 6 8 10 14 15 16 16 17 19 20 21 22 23 24 23 22 22 21 20 20 20 19 18 18 18 19 19 19 19
20 18 17 16 15 13 11 10 9 7 5 3 1 1 2 4 7 10 12 13 14 15 17 18 19 19 19 19 19 19 19 19 18 16 16 16 16 16 17 17 16 16 17
21 20 19 18 17 15 13 11 10 8 7 5 3 2 0 2 4 6 8 9 11 12 14 15 16 16 16 15 15 15 15 15 15 14 13 14 14 15 14 14 14 14 15
22 21 20 19 18 17 16 13 11 9 7 6 5 3 1 1 3 4 6 6 7 9 10 12 12 13 13 13 13 13 13 13 14 13 13 13 12 12 11 11 11 12 13
23 22 21 20 20 19 17 15 13 11 9 7 6 4 2 1 2 3 5 6 7 8 9 10 12 12 12 12 12 12 13 12 11 11 10 9 9 8 9 9 10 10 11
23 23 22 22 21 20 19 17 16 14 12 10 8 6 4 1 2 4 5 6 6 7 9 10 10 11 11 11 11 11 11 10 9 8 8 8 7 7 8 8 9 9 10
22 22 22 22 21 20 19 19 17 16 14 12 10 8 6 3 1 3 5 5 6 7 8 8 9 10 10 10 10 9 9 8 8 8 7 7 7 7 7 7 8 8 8
22 22 22 22 21 21 20 19 18 17 15 14 12 10 8 6 4 3 4 5 6 6 7 7 8 8 9 10 9 9 8 8 7 7 7 7 7 7 6 6 6 6 7
22 22 22 21 21 21 20 20 19 18 17 15 14 12 10 8 7 5 4 5 5 6 7 7 7 8 8 8 8 8 8 8 7 7 7 6 6 6 5 5 5 5 5
22 22 22 21 21 20 20 20 19 19 18 17 15 13 12 10 9 7 6 5 5 6 6 6 7 7 7 8 8 8 8 7 7 6 6 5 5 5 4 4 3 3 3
21 21 21 21 20 19 19 19 19 19 18 17 16 14 13 12 11 9 8 8 8 6 6 6 6 7 7 8 7 7 7 7 7 6 5 4 4 4 3 2 2 2 2
19 20 20 20 20 19 19 18 18 18 18 17 16 15 14 13 12 11 9 8 8 7 7 7 7 7 7 7 7 7 7 7 7 6 5 4 4 3 2 1 1 0 1
18 18 19 19 19 18 18 18 17 17 17 17 16 15 14 13 12 11 10 9 9 9 8 8 8 8 8 8 8 8 8 7 7 6 5 5 4 3 2 2 2 2 2
16 17 17 17 17 17 17 17 16 16 16 16 16 15 14 13 12 12 12 11 10 9 9 9 9 8 8 8 8 8 8 7 7 6 5 5 4 4 4 3 3 2 2
14 15 15 16 16 16 16 16 15 15 15 15 15 14 14 13 13 12 12 11 10 10 10 9 9 9 8 8 8 7 7 7 7 6 6 5 5 4 4 3 3 2 2
13 13 14 14 14 15 14 14 14 13 13 13 13 13 13 12 12 11 11 10 10 9 9 9 8 8 8 8 7 7 7 6 6 6 5 5 4 4 3 3 2 2 2
12 12 12 13 13 12 13 12 12 12 12 11 11 11 11 11 10 10 9 9 9 8 8 7 7 7 6 6 6 6 5 5 5 4 4 4 3 3 2 2 1 2 3
12 12 12 12 11 11 10 10 10 10 10 10 10 9 9 9 8 8 7 7 7 6 6 6 5 5 5 5 4 4 4 4 4 4 3 3 2 2 1 0 1 2 3
12 12 12 11 11 10 9 9 9 8 8 8 8 8 8 7 6 6 6 5 4 4 3 3 3 3 3 3 3 3 2 2 2 2 2 2 2 1 1 1 2 3 4
13 13 12 12 11 10 10 9 9 8 8 7 7 7 6 6 5 5 4 4 3 2 2 1 1 1 1 1 1 1 2 2 2 2 2 2 2 2 2 3 4 5 6
15 14 14 13 12 12 11 11 10 9 9 8 8 7 6 6 5 5 4 3 3 2 1 1 1 1 2 2 2 3 3 3 3 4 4 4 4 4 4 5 6 7 7
Wind_Direction
355 347 339 328 308 293 279 262 249 239 236 235 234 233 232 231 232 233 235 235 236 237 240 241 241 241 243 244 243 243 245 247 250 251 253 255 258 260 260 261 261 260 261
10 8 2 351 333 308 283 275 259 240 235 234 234 233 232 232 233 234 235 237 237 237 238 239 241 240 241 240 241 242 244 246 247 248 251 254 258 260 261 260 260 262 263
16 15 14 11 4 348 311 279 260 244 240 238 231 231 231 232 233 234 236 237 236 234 234 235 238 239 240 239 240 242 243 246 248 249 251 254 257 259 259 258 260 263 264
22 21 22 20 19 14 10 334 273 256 249 243 235 232 233 231 230 229 230 231 231 231 232 232 233 235 237 239 240 242 243 245 247 248 250 253 254 256 256 256 260 262 265
26 25 25 23 24 23 23 20 9 293 261 255 255 243 238 235 231 227 227 225 226 227 227 228 229 233 237 237 240 240 242 243 246 247 249 248 248 251 253 255 259 263 267
31 31 28 26 27 28 27 24 22 19 331 278 258 251 242 236 228 224 219 217 217 221 224 225 226 228 231 231 231 232 233 235 236 237 239 239 244 248 251 255 258 263 268
35 34 32 32 31 30 32 35 32 29 23 17 336 258 235 223 219 213 208 211 216 219 221 221 219 222 224 224 224 224 226 227 229 232 236 241 245 249 254 257 260 264 270
35 35 34 33 31 30 29 28 28 26 23 20 19 360 268 180 186 188 186 193 201 207 212 213 213 214 212 211 213 216 219 221 224 226 230 236 240 245 250 254 261 267 273
36 35 35 34 33 32 30 27 26 25 22 20 18 360 339 217 193 191 191 191 193 195 198 201 202 203 200 201 206 210 211 213 215 220 228 235 240 245 251 258 264 269 275
36 35 35 35 34 32 31 30 29 27 25 21 15 6 350 266 220 199 201 199 197 192 191 192 195 196 197 197 199 203 205 207 210 216 222 228 236 245 252 260 266 272 278
35 34 34 34 33 33 33 34 33 31 30 29 25 21 13 347 214 198 198 198 194 190 185 188 190 190 190 192 194 197 198 202 206 213 221 229 235 242 251 262 268 275 281
33 33 32 32 32 33 34 35 35 36 35 34 33 33 34 48 110 168 177 182 185 187 188 189 188 189 190 190 194 196 197 202 209 214 221 227 233 242 249 258 268 277 284
31 31 31 32 32 33 33 35 36 37 38 39 39 40 43 55 80 122 145 162 180 186 184 183 186 190 190 191 192 195 198 203 210 216 222 229 236 242 247 257 269 282 289
31 31 31 32 33 33 35 37 38 40 41 41 43 46 49 56 72 93 113 131 150 161 167 173 181 181 184 187 191 193 196 202 207 211 215 224 230 235 242 252 266 282 294
31 32 32 33 34 35 37 39 40 41 42 43 46 50 53 58 67 80 93 104 121 141 155 160 165 172 180 183 184 188 190 193 194 195 199 206 214 224 234 243 253 272 299
31 32 32 32 33 35 36 38 39 40 42 44 48 53 57 60 66 75 86 94 104 115 130 143 153 160 165 167 168 172 174 177 180 182 187 193 198 203 214 224 244 280 314
28 29 30 31 33 34 36 37 39 40 41 43 47 52 56 58 63 70 79 87 94 105 116 127 134 140 144 149 154 159 163 163 161 163 165 166 167 170 174 184 195 345 4
25 26 28 29 30 32 34 36 38 40 42 44 47 50 54 58 62 68 73 82 90 96 106 115 121 127 132 135 139 143 147 150 150 150 152 154 154 150 144 137 122 90 59
21 22 23 25 26 28 30 32 35 38 41 44 46 48 52 56 60 66 72 79 86 92 99 106 113 119 125 128 130 133 136 139 142 143 144 144 141 135 128 120 110 86 63
13 16 18 20 22 24 26 28 31 35 39 43 46 48 50 53 59 64 69 75 81 88 95 101 108 114 120 124 126 129 131 134 135 136 135 132 130 126 121 114 103 83 54
2 5 9 13 16 19 22 25 28 32 35 39 43 46 49 52 56 61 66 71 78 85 91 96 102 108 113 118 122 125 128 130 132 133 132 130 127 125 121 110 90 57 27
349 353 357 1 5 11 17 21 24 27 30 33 37 40 44 48 52 57 62 68 75 82 88 93 99 106 113 119 122 125 127 131 134 138 141 141 140 134 121 98 60 25 9
337 341 343 347 352 357 3 9 14 18 22 24 27 31 35 41 45 50 56 64 72 79 86 93 101 108 114 119 123 127 129 132 136 142 148 152 154 151 139 44 356 350 346
324 328 331 333 336 340 345 349 354 358 4 10 14 18 22 26 31 37 43 51 60 72 85 94 102 109 113 118 123 130 137 145 154 162 168 175 188 209 247 289 312 322 326
312 314 316 317 319 321 324 328 331 333 336 340 346 352 358 3 7 10 16 24 32 44 62 87 107 118 131 148 164 175 184 194 201 209 215 220 234 255 276 291 301 309 314
301 303 304 303 303 305 306 308 310 313 314 315 316 319 323 328 331 334 334 332 333 331 319 298 279 265 252 241 236 239 244 243 240 240 242 250 263 275 283 291 297 303 307
Height
5773 5770 5768 5766 5764 5763 5762 5762 5763 5764 5766 5768 5770 5773 5776 5780 5784 5788 5791 5795 5799 5802 5806 5809 5812 5815 5818 5820 5823 5826 5828 5831 5833 5834 5835 5836 5837 5838 5839 5840 5841 5841 5842
5773 5770 5768 5766 5764 5762 5761 5761 5761 5761 5762 5763 5766 5768 5771 5774 5778 5781 5784 5787 5791 5795 5798 5801 5805 5808 5810 5813 5815 5818 5821 5823 5825 5827 5828 5829 5830 5831 5832 5833 5833 5834 5835
5774 5772 5769 5766 5764 5762 5761 5760 5760 5760 5760 5761 5763 5765 5767 5769 5772 5775 5778 5781 5784 5788 5791 5795 5798 5801 5803 5806 5808 5811 5813 5816 5818 5820 5821 5822 5823 5824 5825 5826 5827 5828 5828
5776 5773 5770 5767 5765 5763 5761 5760 5759 5759 5759 5760 5760 5762 5763 5765 5767 5769 5772 5775 5778 5781 5784 5788 5791 5793 5796 5799 5802 5804 5807 5809 5811 5812 5814 5815 5817 5818 5819 5820 5820 5821 5822
5778 5775 5772 5769 5766 5764 5762 5760 5759 5759 5759 5759 5759 5760 5760 5761 5763 5764 5767 5769 5772 5775 5778 5781 5784 5787 5790 5793 5796 5798 5800 5802 5804 5806 5808 5809 5811 5812 5813 5814 5815 5815 5816
5780 5777 5774 5771 5768 5766 5764 5762 5760 5759 5758 5758 5758 5758 5758 5759 5760 5761 5763 5766 5768 5771 5774 5776 5779 5782 5784 5787 5790 5792 5795 5797 5799 5801 5802 5804 5806 5807 5808 5809 5810 5810 5811
5783 5780 5776 5773 5770 5767 5765 5763 5762 5760 5759 5758 5758 5757 5757 5757 5758 5759 5761 5763 5765 5768 5770 5773 5775 5778 5780 5782 5785 5787 5790 5792 5795 5797 5798 5800 5801 5803 5804 5805 5805 5806 5806
5787 5783 5780 5776 5773 5770 5767 5765 5763 5761 5760 5759 5758 5757 5757 5757 5757 5758 5760 5762 5763 5765 5767 5770 5772 5774 5777 5779 5782 5784 5786 5789 5791 5793 5795 5797 5798 5799 5800 5801 5801 5802 5802
5791 5787 5783 5779 5776 5773 5770 5767 5765 5763 5761 5760 5758 5758 5757 5757 5757 5758 5759 5760 5762 5764 5766 5768 5770 5772 5774 5776 5779 5781 5784 5786 5788 5790 5791 5793 5794 5795 5796 5797 5798 5798 5798
5795 5791 5787 5783 5779 5776 5772 5769 5766 5764 5762 5760 5759 5758 5757 5757 5757 5758 5759 5760 5761 5762 5764 5766 5768 5770 5772 5775 5777 5780 5782 5784 5785 5787 5789 5790 5792 5793 5793 5794 5794 5795 5794
5799 5795 5791 5786 5783 5779 5775 5772 5768 5766 5763 5761 5760 5758 5757 5756 5757 5757 5758 5759 5760 5762 5763 5765 5767 5769 5771 5774 5776 5778 5780 5782 5784 5785 5787 5788 5789 5790 5791 5791 5791 5791 5791
5803 5799 5795 5790 5786 5782 5778 5775 5771 5768 5766 5763 5761 5759 5758 5757 5756 5757 5758 5759 5761 5762 5763 5765 5766 5768 5771 5773 5775 5777 5779 5780 5782 5784 5785 5786 5787 5788 5788 5789 5788 5788 5787
5807 5803 5798 5794 5790 5786 5782 5778 5775 5772 5769 5766 5763 5761 5760 5758 5758 5758 5758 5759 5760 5762 5763 5764 5766 5768 5770 5772 5774 5776 5778 5779 5781 5782 5783 5784 5785 5785 5786 5786 5786 5785 5785
5810 5806 5802 5798 5794 5790 5786 5782 5778 5775 5772 5769 5766 5764 5762 5760 5759 5759 5759 5760 5761 5762 5763 5764 5766 5767 5769 5771 5773 5774 5776 5778 5779 5780 5782 5782 5783 5784 5784 5784 5784 5783 5783
5813 5809 5805 5801 5797 5794 5790 5786 5783 5779 5776 5773 5770 5767 5765 5763 5762 5761 5761 5761 5762 5762 5763 5764 5766 5767 5769 5770 5772 5774 5775 5777 5778 5779 5780 5781 5782 5782 5782 5782 5782 5782 5781
5817 5813 5809 5805 5801 5797 5794 5790 5787 5783 5780 5777 5774 5771 5769 5767 5766 5765 5764 5764 5764 5764 5765 5765 5766 5768 5769 5770 5772 5773 5775 5776 5778 5779 5779 5780 5781 5781 5781 5781 5781 5780 5780
5820 5816 5812 5808 5805 5801 5797 5794 5791 5787 5784 5781 5778 5776 5773 5771 5770 5769 5768 5767 5767 5767 5767 5767 5768 5769 5770 5771 5772 5774 5775 5776 5777 5778 5779 5780 5780 5780 5780 5780 5780 5779 5779
5822 5819 5815 5812 5808 5805 5801 5798 5794 5791 5788 5785 5782 5780 5778 5776 5774 5772 5771 5771 5770 5770 5770 5770 5770 5771 5772 5773 5774 5775 5776 5777 5778 5778 5779 5780 5780 5780 5780 5780 5779 5779 5778
5824 5821 5818 5814 5811 5808 5804 5801 5798 5795 5792 5789 5786 5784 5782 5780 5778 5776 5775 5774 5773 5773 5773 5773 5773 5774 5774 5775 5776 5776 5777 5778 5778 5779 5779 5780 5780 5780 5780 5780 5779 5779 5778
5826 5823 5819 5816 5813 5810 5807 5804 5801 5798 5795 5792 5790 5788 5786 5784 5782 5780 5779 5778 5777 5777 5776 5776 5776 5776 5777 5777 5778 5778 5779 5779 5779 5780 5780 5780 5780 5780 5780 5780 5780 5779 5778
5826 5823 5820 5817 5815 5812 5809 5806 5803 5801 5798 5796 5793 5791 5789 5787 5786 5784 5783 5782 5781 5780 5780 5779 5779 5779 5779 5779 5780 5780 5780 5780 5781 5781 5781 5781 5781 5781 5781 5780 5780 5779 5778
5825 5823 5820 5818 5815 5812 5810 5807 5805 5803 5801 5798 5796 5794 5792 5790 5789 5787 5786 5785 5784 5783 5782 5782 5782 5782 5782 5782 5782 5782 5782 5782 5782 5782 5782 5782 5781 5781 5781 5780 5779 5779 5778
5824 5822 5820 5817 5815 5813 5810 5808 5806 5804 5802 5800 5798 5796 5794 5793 5791 5790 5789 5787 5786 5786 5785 5784 5784 5784 5783 5783 5783 5783 5783 5782 5782 5782 5782 5782 5781 5781 5780 5780 5779 5778 5777
5822 5820 5818 5816 5814 5812 5810 5808 5806 5805 5803 5801 5799 5798 5796 5794 5793 5792 5790 5789 5788 5787 5786 5786 5785 5785 5784 5784 5784 5783 5783 5783 5782 5782 5782 5781 5781 5780 5780 5779 5778 5777 5776
5818 5817 5815 5813 5812 5810 5809 5807 5805 5804 5802 5801 5799 5798 5796 5795 5794 5792 5791 5790 5789 5788 5787 5787 5786 5785 5785 5784 5784 5784 5783 5783 5782 5782 5781 5781 5780 5779 5779 5778 5777 5776 5774
5814 5813 5811 5810 5808 5807 5806 5804 5803 5802 5801 5799 5798 5797 5796 5795 5793 5792 5791 5790 5789 5788 5788 5787 5786 5785 5785 5784 5784 5783 5783 5782 5781 5781 5780 5779 5779 5778 5777 5776 5775 5774 5772